TimePDT,TemperatureF,Dew PointF,Humidity,Sea Level PressureIn,VisibilityMPH,Wind Direction,Wind SpeedMPH,Gust SpeedMPH,PrecipitationIn,Events,Conditions,WindDirDegrees,DateUTC
12:04 AM,53.6,51.8,94,30.03,10.0,Calm,Calm,-,N/A,,Overcast,0,2012-11-02 07:04:00
12:53 AM,52.0,50.0,93,30.03,10.0,Calm,Calm,-,N/A,,Mostly Cloudy,0,2012-11-02 07:53:00
1:10 AM,51.8,50.0,94,30.03,9.0,Calm,Calm,-,N/A,,Mostly Cloudy,0,2012-11-02 08:10:00
1:53 AM,53.1,51.1,93,30.04,10.0,Calm,Calm,-,N/A,,Overcast,0,2012-11-02 08:53:00
2:51 AM,51.8,51.8,100,30.04,10.0,Calm,Calm,-,N/A,,Overcast,0,2012-11-02 09:51:00
2:53 AM,52.0,50.0,93,30.05,10.0,Calm,Calm,-,N/A,,Overcast,0,2012-11-02 09:53:00
3:00 AM,51.8,50.0,94,30.05,8.0,Calm,Calm,-,N/A,,Mostly Cloudy,0,2012-11-02 10:00:00
3:11 AM,51.8,50.0,94,30.05,1.8,Calm,Calm,-,N/A,,Scattered Clouds,0,2012-11-02 10:11:00
3:33 AM,51.8,50.0,94,30.04,2.5,Calm,Calm,-,N/A,,Mostly Cloudy,0,2012-11-02 10:33:00
3:41 AM,50.0,48.2,94,30.04,7.0,Calm,Calm,-,N/A,,Mostly Cloudy,0,2012-11-02 10:41:00
3:53 AM,51.1,48.9,92,30.04,6.0,Calm,Calm,-,N/A,,Scattered Clouds,0,2012-11-02 10:53:00
4:10 AM,50.0,48.2,94,30.04,0.8,Calm,Calm,-,N/A,,Scattered Clouds,0,2012-11-02 11:10:00
4:31 AM,50.0,48.2,94,30.03,0.5,Calm,Calm,-,N/A,Fog,Fog,0,2012-11-02 11:31:00
4:38 AM,50.0,48.2,94,30.03,0.8,Calm,Calm,-,N/A,,Mist,0,2012-11-02 11:38:00
4:53 AM,48.9,48.0,97,30.04,0.5,Calm,Calm,-,N/A,Fog,Fog,0,2012-11-02 11:53:00
5:31 AM,48.2,48.2,100,30.03,1.0,Calm,Calm,-,N/A,,Overcast,0,2012-11-02 12:31:00
5:41 AM,48.2,48.2,100,30.03,2.0,Calm,Calm,-,N/A,,Overcast,0,2012-11-02 12:41:00
5:51 AM,50.0,48.2,94,30.03,4.0,Calm,Calm,-,N/A,,Overcast,0,2012-11-02 12:51:00
5:53 AM,50.0,48.9,96,30.03,5.0,Calm,Calm,-,N/A,,Overcast,0,2012-11-02 12:53:00
6:02 AM,50.0,48.2,94,30.02,2.5,Calm,Calm,-,N/A,,Overcast,0,2012-11-02 13:02:00
6:08 AM,50.0,48.2,94,30.02,0.8,Calm,Calm,-,N/A,,Overcast,0,2012-11-02 13:08:00
6:22 AM,48.2,48.2,100,30.02,0.5,Calm,Calm,-,N/A,Fog,Fog,0,2012-11-02 13:22:00
6:30 AM,48.2,46.4,93,30.02,0.2,Calm,Calm,-,N/A,Fog,Fog,0,2012-11-02 13:30:00
6:43 AM,48.2,48.2,100,30.01,0.5,Calm,Calm,-,N/A,Fog,Fog,0,2012-11-02 13:43:00
6:53 AM,48.9,48.0,97,30.01,1.5,Calm,Calm,-,N/A,,Overcast,0,2012-11-02 13:53:00
7:07 AM,48.2,48.2,100,30.01,1.5,Calm,Calm,-,N/A,,Overcast,0,2012-11-02 14:07:00
7:20 AM,48.2,48.2,100,30.02,3.0,Calm,Calm,-,N/A,,Overcast,0,2012-11-02 14:20:00
7:36 AM,48.2,48.2,100,30.01,7.0,Calm,Calm,-,N/A,,Mostly Cloudy,0,2012-11-02 14:36:00
7:50 AM,48.2,46.4,93,30.02,1.8,Calm,Calm,-,N/A,,Mostly Cloudy,0,2012-11-02 14:50:00
7:53 AM,48.9,46.9,93,30.02,1.5,Calm,Calm,-,N/A,,Mostly Cloudy,0,2012-11-02 14:53:00
8:00 AM,48.2,48.2,100,30.02,2.0,Calm,Calm,-,N/A,,Mostly Cloudy,0,2012-11-02 15:00:00
8:10 AM,48.2,48.2,100,30.01,5.0,Calm,Calm,-,N/A,,Mostly Cloudy,0,2012-11-02 15:10:00
8:38 AM,50.0,48.2,94,30.02,9.0,Calm,Calm,-,N/A,,Scattered Clouds,0,2012-11-02 15:38:00
8:53 AM,51.1,50.0,96,30.02,6.0,Calm,Calm,-,N/A,,Clear,0,2012-11-02 15:53:00
9:38 AM,51.8,51.8,100,30.03,10.0,Calm,Calm,-,N/A,,Mostly Cloudy,0,2012-11-02 16:38:00
9:53 AM,53.1,50.0,89,30.03,10.0,Calm,Calm,-,N/A,,Mostly Cloudy,0,2012-11-02 16:53:00
10:07 AM,53.6,50.0,88,30.03,10.0,Calm,Calm,-,N/A,,Mostly Cloudy,0,2012-11-02 17:07:00
10:53 AM,54.0,50.0,86,30.03,10.0,Calm,Calm,-,N/A,,Overcast,0,2012-11-02 17:53:00
11:53 AM,55.0,50.0,83,30.02,10.0,Calm,Calm,-,N/A,,Overcast,0,2012-11-02 18:53:00
12:53 PM,55.0,51.1,86,30.01,10.0,Calm,Calm,-,N/A,,Overcast,0,2012-11-02 19:53:00
1:53 PM,57.0,51.1,81,29.99,10.0,Calm,Calm,-,N/A,,Overcast,0,2012-11-02 20:53:00
2:53 PM,55.9,52.0,87,29.99,8.0,Calm,Calm,-,0.03,Rain,Light Rain,0,2012-11-02 21:53:00
3:53 PM,55.0,53.1,93,30.00,8.0,Calm,Calm,-,0.04,Rain,Light Rain,0,2012-11-02 22:53:00
4:53 PM,55.0,53.1,93,29.98,10.0,Calm,Calm,-,0.01,,Overcast,0,2012-11-02 23:53:00
5:53 PM,54.0,53.1,97,29.98,7.0,SSW,3.5,-,0.00,Rain,Light Rain,210,2012-11-03 00:53:00
6:53 PM,54.0,52.0,93,29.99,10.0,South,3.5,-,0.01,,Overcast,190,2012-11-03 01:53:00
7:53 PM,52.0,51.1,97,29.99,10.0,East,4.6,-,0.02,Rain,Light Rain,100,2012-11-03 02:53:00
8:53 PM,53.1,51.1,93,29.99,10.0,Calm,Calm,-,0.05,,Overcast,0,2012-11-03 03:53:00
9:53 PM,53.1,51.1,93,30.00,4.0,Calm,Calm,-,0.01,Rain,Light Rain,0,2012-11-03 04:53:00
10:19 PM,53.6,51.8,94,30.00,10.0,Calm,Calm,-,0.00,Rain,Light Rain,0,2012-11-03 05:19:00
10:53 PM,52.0,51.1,97,30.00,6.0,Calm,Calm,-,0.00,,Overcast,0,2012-11-03 05:53:00
11:30 PM,51.8,51.8,100,30.00,7.0,Calm,Calm,-,0.01,,Overcast,0,2012-11-03 06:30:00
11:35 PM,51.8,51.8,100,30.00,8.0,Calm,Calm,-,0.01,,Overcast,0,2012-11-03 06:35:00
11:53 PM,53.1,51.1,93,30.00,8.0,Calm,Calm,-,0.01,Rain,Light Rain,0,2012-11-03 06:53:00